Regional Weather Roundup
Issued by NWS

Home | Current Version | Previous Version | Graphics & Text | Print | Product List | Glossary On
Versions: 1 2 3 4 5 6 7 8 9 10 11 12 13 14 15 16 17 18 19 20 21 22 23 24 25 26 27 28 29 30 31 32 33 34 35 36 37 38 39 40 41 42 43 44 45 46 47 48 49 50
000
ASUS43 KDMX 271207
RWRIA

WEATHER ROUNDUP FOR IOWA
NATIONAL WEATHER SERVICE DES MOINES IA
700 AM CDT MON JUL 27 2015

NOTE: "FAIR" INDICATES FEW OR NO CLOUDS BELOW 12,000 FEET WITH NO
SIGNIFICANT WEATHER AND/OR OBSTRUCTIONS TO VISIBILITY.

* - THESE STATIONS ARE NOT NWS STATIONS...THUS NOT UNDER NWS
QUALITY CONTROL.  THEY ALSO DO NOT REPORT WEATHER SUCH
AS PRECIPITATION OR FOG.

IAZ001>003-012>014-020>022-031>034-043>046-271300-
   NORTHWEST IOWA

CITY           SKY/WX    TMP DP  RH WIND       PRES   REMARKS
CARROLL *      PTCLDY    73  73 100 E7        29.93R
CHEROKEE *     CLOUDY    74  74 100 CALM      29.92R
DENISON *      CLEAR     75  73  94 E6        29.90R
LE MARS *      LGT RAIN  72  68  88 E12       29.91F
ORANGE CITY *  LGT RAIN  70  66  88 S9        29.95R
SHELDON *      CLOUDY    72  72 100 S3        29.93R FOG
SIOUX CITY     LGT RAIN  72  68  87 SE12      29.88F
6HR MIN TEMP:  71; 6HR MAX TEMP:  78; 6HR PCP:  0.39;

SPENCER        LGT RAIN  74  71  91 SE6       29.94R FOG
6HR MIN TEMP:  72; 6HR MAX TEMP:  74; 6HR PCP: TRACE;

STORM LAKE *   CLOUDY    72  72 100 SE6       29.93S FOG
$$

IAZ055>058-069>071-079>083-090>094-271300-
   SOUTHWEST IOWA

CITY           SKY/WX    TMP DP  RH WIND       PRES   REMARKS
ATLANTIC *     CLEAR     77  75  94 CALM      29.91R
AUDUBON *      PTCLDY    75  72  88 CALM      29.94R
CLARINDA *     CLEAR     77  77 100 CALM      29.92R
COUNCIL BLFS * CLEAR     77  75  94 SE12      29.88S FOG
CRESTON *      PTCLDY    75  73  94 SE6       29.94R
HARLAN  *      CLEAR     75  75 100 SE8       29.93R
LAMONI         MOCLDY    77  74  90 E5        29.93R
6HR MIN TEMP:  76; 6HR MAX TEMP:  78;

RED OAK *      PTCLDY    77  77 100 SE5       29.89S
SHENANDOAH *   CLEAR     77  77 100 SE7       29.89R
$$

IAZ047>049-059>061-072>074-084-271300-
   CENTRAL IOWA

CITY           SKY/WX    TMP DP  RH WIND       PRES   REMARKS
AMES           PTCLDY    72  71  97 SE5       29.94R
6HR MIN TEMP:  71; 6HR MAX TEMP:  75;

ANKENY *       PTCLDY    73  73 100 SE5       29.93S
CHARITON *     CLEAR     73  73 100 SE5       29.94R
DES MOINES     MOCLDY    76  72  87 E6        29.93R
6HR MIN TEMP:  75; 6HR MAX TEMP:  79;

GRINNELL*      FOG       72  72 100 E6        29.98R VSB 1/4
KNOXVILLE *    PTCLDY    73  72  94 E5        29.94R
MARSHALLTOWN   CLOUDY    72  72 100 E10       29.96R FOG
6HR MIN TEMP:  71; 6HR MAX TEMP:  73;

PELLA *        FOG       72  72 100 E3        29.96R VSB 1/2
PERRY *        MOCLDY    73  73 100 SE3       29.94R FOG
$$

IAZ004>006-015-016-023>025-035-036-271300-
   NORTH CENTRAL IOWA

CITY           SKY/WX    TMP DP  RH WIND       PRES   REMARKS
ALGONA *       MOCLDY    72  72 100 SE6       29.94S FOG
CLARION *      FOG       72  72 100 SE10      29.95R VSB 1/4
ESTHERVILLE    CLOUDY    71  71 100 E7        29.93R FOG
6HR MIN TEMP:  70; 6HR MAX TEMP:  72;

FORT DODGE *   CLOUDY    72  70  94 SE5       29.96R
MASON CITY     FOG       72  71  97 SE12      29.98R VSB 1/2
6HR MIN TEMP:  71; 6HR MAX TEMP:  72;

FOREST CITY *  CLOUDY    72  72 100 SE8       29.96S FOG
IOWA FALLS *   FOG       71  70  96 E7        29.98R VSB 1/2
$$

IAZ007>011-017>019-026>030-037>042-050>054-066-271300-
   NORTHEAST IOWA

CITY           SKY/WX    TMP DP  RH WIND       PRES   REMARKS
CEDAR RAPIDS   MOSUNNY   68  68 100 E5        29.97R HAZE
6HR MIN TEMP:  67; 6HR MAX TEMP:  71;

CHARLES CITY * MOCLDY    70  70 100 SE7       29.99R
CLINTON *      MOSUNNY   66  63  88 E7        30.00R
DUBUQUE        MOSUNNY   68  65  90 NE3       30.00R FOG
6HR MIN TEMP:  66; 6HR MAX TEMP:  69;

MONTICELLO *   SUNNY     68  66  94 CALM      29.99R FOG
OELWEIN *      SUNNY     68  68 100 CALM      29.99R
WATERLOO       CLOUDY    70  67  90 SE8       29.96R
6HR MIN TEMP:  69; 6HR MAX TEMP:  73;

$$

IAZ064-065-067-068-078-271300-
   EAST CENTRAL IOWA

CITY           SKY/WX    TMP DP  RH WIND       PRES   REMARKS
DAVENPORT      MOSUNNY   69  66  90 E6        29.98R FOG
6HR MIN TEMP:  66; 6HR MAX TEMP:  69;

IOWA CITY      MOSUNNY   70  67  90 SE3       29.98R
6HR MIN TEMP:  69; 6HR MAX TEMP:  74;

MT. PLEASANT * CLOUDY    73  69  89 E3        29.96R FOG
MUSCATINE *    SUNNY     70  68  94 CALM      29.97R
QUAD CITIES    PTSUNNY   70  66  87 E3        29.97R
6HR MIN TEMP:  67; 6HR MAX TEMP:  71;

$$

IAZ062-063-075>077-085>089-095>099-271300-
   SOUTHEAST IOWA

CITY           SKY/WX    TMP DP  RH WIND       PRES   REMARKS
BURLINGTON     CLOUDY    72  72 100 NE3       29.96R FOG
6HR MIN TEMP:  71; 6HR MAX TEMP:  73;

FAIRFIELD *    FOG       72  72 100 E7        29.96R VSB 0
FORT MADISON * FOG       72  72 100 CALM      29.97R VSB 1
KEOKUK *       MOSUNNY   73  73 100 E6        29.95R
OSKALOOSA *    CLOUDY    72  71  96 CALM      29.97R FOG
CENTERVILLE *  CLEAR     72  72 100 E5        29.96R
OTTUMWA        FOG       73  73 100 SE5       29.95R VSB 1/2
6HR MIN TEMP:  71; 6HR MAX TEMP:  75;

WASHINGTON *   FOG       72  72 100 E6        29.98R VSB 0
$$

ABBREVIATIONS USED IN REMARKS
   TC - TEMPERATURES IN CELSIUS
  WCI - WIND CHILL INDEX
   HX - HEAT INDEX
  VSB - VISIBILITY
$$




USA.gov is the U.S. government's official web portal to all federal, state and local government web resources and services.